User: anonymous   Login
Location: Savignano sul Rubicone
(44.0950°N, 12.4090°E)
Time: 02:52:54
(UTC+01:00)
Language:

JY1SAT - Orbit

View from above orbital plane
View from above orbital plane
View from above satellite
View from above satellite

Ground track
Ground track

The orbit data is extracted from the following two-line orbital elements,

1 43803U 18099AX  19343.82241478  .00000601  00000-0  59536-4 0  9990
2 43803  97.7267  53.4624 0016753 106.8132 253.4928 14.95377596 55442
Epoch (UTC): 09 December 2019 19:44:16
Eccentricity: 0.0016753
inclination: 97.7267°
perigee height: 569 km
apogee height: 593 km
right ascension of ascending node: 53.4624°
argument of perigee: 106.8132°
revolutions per day: 14.95377596
mean anomaly at epoch: 253.4928°
orbit number at epoch: 5544

The dashed part of the orbit path shows where the satellite is in the earth's shadow,  

DLR